Torna al catalogo

TeikyoSat 4

TEIKYOSAT-4

AttivoRadioamatoreSSO
NORAD 49396·PAYLOAD·🇯🇵 Japan

Lanciato Nov 9, 2021 da Uchinoura Space Center

Loading…

Prossimi Passaggi (prossime 24 ore)

TLE

AggiornatoSource: AMSAT

Epoca: Sep 14, 2026, 01:43 UTC

1 49396U 21102B   26257.07210072  .00001382  00000-0  89264-4 0  9995
2 49396  97.3629 283.0948 0011702 355.1823   4.9292 15.09771114266131

Traccia TeikyoSat 4 in tempo reale con AllMySat

Download on the App Store